Location: Dry Creek
(34.6682°N, 88.7362°W)
Time: 04:36:08
(UTC+00:00)

Daily predictions for brighter satellites

Satellite Brightness Start Highest point End
(mag) Time Altitude Azimuth Time Altitude Azimuth Time Altitude Azimuth
Okean O Rocket 3.4 00:01:04 10° SSW 00:05:04 35° W 00:09:05 10° NNW
SeaSat 1 4.2 00:11:24 14° NE 00:11:24 14° NE 00:13:40 10° NNE
Cosmos 2219 3.8 00:08:10 10° N 00:13:26 35° ENE 00:17:55 13° SE
YAOGAN 1 3.1 00:10:17 10° SE 00:14:12 35° ENE 00:18:09 10° N
Aureole 3 2.9 00:11:03 10° S 00:14:36 81° W 00:17:41 10° N
Cosmos 1825 Rocket 4.5 00:12:28 10° NNW 00:16:47 52° W 00:21:02 10° S
S3M 4.1 00:13:33 10° SSE 00:19:19 46° E 00:25:07 10° NNE
CZ-2C R/B 3.5 00:18:00 10° SSE 00:23:35 50° ENE 00:29:05 10° N
Cosmos 1315 Rocket 3.3 00:20:45 10° SSE 00:24:17 33° E 00:24:27 33° E
Cosmos 1892 3.2 00:21:41 10° N 00:25:19 37° E 00:26:13 32° ESE
CZ-2D R/B 3.1 00:23:12 10° SSE 00:27:01 87° ENE 00:30:50 10° N
Cosmos 968 Rocket 4.2 00:22:54 10° N 00:27:31 31° ENE 00:28:17 30° E
Hubble Space Telescope 3.4 00:26:10 10° SW 00:27:55 12° SSW 00:29:39 10° S
Delta 2 Rocket 4.0 00:23:17 10° W 00:28:39 89° S 00:31:32 30° ESE
Cosmos 2369 4.0 00:23:46 10° S 00:29:05 42° ESE 00:32:24 21° NE
Atlas Centaur 2 3.4 00:22:28 10° WSW 00:30:38 53° SSE 00:35:20 26° ESE
Timation 2 Rocket 4.1 00:24:07 10° NNW 00:30:47 77° ENE 00:37:39 10° SSE
Cosmos 1417 Rocket 4.4 00:24:51 10° S 00:31:03 77° E 00:37:20 10° N
Meteor 2-10 Rocket 3.5 00:27:06 10° S 00:32:28 63° E 00:37:38 10° NNE
CRYOSAT 2 4.5 00:29:46 10° NNE 00:34:28 49° E 00:39:09 10° SSE
Okean-O 2.5 00:30:55 10° SSE 00:35:21 85° ENE 00:39:48 10° N
ARGOS 3.8 00:36:35 32° ENE 00:36:35 32° ENE 00:41:17 10° N
NOSS 3-3 (A) 3.7 00:31:43 10° SSW 00:37:17 71° ESE 00:41:50 19° NE
NOSS 3-3 (C) 3.7 00:31:47 10° SSW 00:37:24 71° ESE 00:41:57 19° NE
Cosmos 1486 Rocket 4.3 00:34:53 10° N 00:39:57 43° ENE 00:41:02 38° E
Meteor 2-1 Rocket 4.1 00:35:14 10° S 00:40:41 65° E 00:46:08 10° NNE
Cosmos 1656 4.2 00:39:37 10° SW 00:45:02 58° WNW 00:50:35 10° NNE
SJ-11-01 4.3 00:46:20 47° ESE 00:47:12 55° ENE 00:51:45 10° N
MOS 1 Rocket 3.2 00:44:50 10° NNE 00:49:34 86° E 00:54:36 10° SSW
Cosmos 1553 Rocket 4.4 00:43:28 10° SSW 00:49:48 66° W 00:56:05 10° N
Cosmos 2227 Rocket 2.2 00:44:21 10° NNW 00:49:54 54° ENE 00:51:13 44° ESE
CSL-04 Rocket 3.6 00:46:03 10° SSE 00:51:28 62° ENE 00:56:57 10° N
SL-08 ROCKET BODY 4.3 00:49:42 10° N 00:55:50 86° E 01:02:02 10° S
GEOS 3 Rocket 3.9 00:57:17 47° NE 00:57:21 48° NE 01:02:30 10° NNW
OAO 3 Rocket 3.2 00:55:55 10° W 01:00:39 63° SSW 01:01:04 60° SSE
Cosmos 1697 Rocket 2.7 00:56:37 10° SSW 01:02:13 82° WNW 01:06:00 22° NNE
Helios 1A Rocket 4.5 00:58:31 10° SSW 01:02:19 36° W 01:06:08 10° NNW
Cosmos 1340 4.1 01:01:33 10° NNW 01:05:04 37° W 01:08:33 10° SSW
H-2A R/B 2.0 01:03:04 18° SSE 01:07:07 87° ENE 01:12:35 10° NNW
OAO 1 Rocket 4.2 01:02:17 10° W 01:07:39 88° S 01:07:59 80° E
Cosmos 1992 Rocket 4.4 01:04:42 10° SSW 01:09:50 61° WNW 01:13:53 17° N
ASTRO E2 4.0 01:08:49 10° WSW 01:11:22 34° SW 01:11:22 34° SW
Cosmos 1455 3.8 01:17:09 10° SSW 01:19:51 32° WSW 01:19:51 32° WSW
Cosmos 1745 Rocket 4.3 01:15:55 10° NNW 01:22:10 68° W 01:28:26 10° S
Cosmos 1980 Rocket 2.7 01:18:26 10° SSW 01:22:19 46° S 01:22:19 46° S
CZ-4 R/B 3.7 01:21:05 10° SSW 01:24:14 23° W 01:27:21 10° NW
Cosmos 44 Rocket 4.2 01:22:32 10° SSW 01:25:34 40° SW 01:25:34 40° SW
Cosmos 2297 Rocket 2.8 01:24:31 10° NNW 01:30:01 52° WSW 01:32:04 35° SSW
Milstar 3 3.1 01:28:00 10° WSW 01:34:25 52° S 01:34:44 52° S
SeaSat 1 4.3 01:51:12 23° NNW 01:51:12 23° NNW 01:53:04 10° NNW
Atlas Centaur 2 3.7 02:11:51 10° W 02:17:56 48° WSW 02:17:56 48° WSW
CENTAUR R/B 4.1 08:57:17 27° NE 08:57:17 27° NE 09:00:15 10° NE
Cosmos 2344 4.2 09:27:00 41° N 09:27:00 41° N 09:32:17 10° NNE
ATLAS 3B R/B 3.6 09:36:11 20° S 09:40:12 41° ESE 09:46:18 10° NE
EPKM 4.5 09:43:41 37° S 09:44:43 40° SSE 10:00:20 10° E
COSMOS 2406 3.3 09:48:10 74° E 09:48:10 74° E 09:53:37 10° NNE
Cosmos 2279 Rocket 4.0 09:46:01 10° N 09:52:13 77° E 09:58:23 10° S
Cosmos 292 Rocket 4.1 09:57:37 62° NE 09:57:58 64° ENE 10:02:45 10° SSE
ADEOS Rocket 2.9 09:52:45 10° SSE 09:58:14 70° ENE 10:03:42 10° N
ERS-2 4.1 10:00:01 10° SE 10:03:08 28° ENE 10:05:48 13° NNE
BREEZE-M DEB (TANK) 4.3 10:04:38 18° ENE 10:04:38 18° ENE 10:05:29 10° ENE
Cosmos 1908 4.0 10:08:35 43° NE 10:09:23 51° E 10:13:11 10° SSE
Cosmos 1461 3.3 10:10:09 58° SSE 10:10:45 66° ESE 10:15:21 10° NE
CBERS 1 LM4 rocket 4.2 10:08:23 10° NNE 10:13:17 86° WNW 10:14:27 52° SSW
FENGYUN 3A 4.3 10:09:05 10° NNE 10:14:26 57° E 10:19:45 10° S
ISS -1.5 10:19:03 19° NNE 10:19:03 19° NNE 10:20:13 10° NNE
USA 290 4.1 10:18:28 17° SSE 10:20:22 31° ESE 10:23:15 10° NE
DELTA 2 R/B (1) 3.5 10:24:50 48° WNW 10:26:27 86° NNE 10:32:05 10° ESE
CZ-2C R/B 2.8 10:30:29 18° S 10:30:29 18° S 10:31:48 10° SSE
Cosmos 1331 Rocket 4.3 10:30:15 43° WSW 10:30:15 43° WSW 10:34:48 10° S
Lacrosse 4 Rocket 3.6 10:33:26 13° N 10:33:26 13° N 10:34:04 10° N
ALOS 2.2 10:30:40 10° NNE 10:35:21 89° WNW 10:40:01 10° SSW
Cosmos 1626 1.9 10:36:07 10° S 10:39:47 75° W 10:43:29 10° N
Cosmos 1484 Rocket 2.5 10:37:35 10° N 10:41:26 71° WNW 10:45:10 10° SSW
CENTAUR R/B 3.7 10:44:29 21° NW 10:45:08 21° NW 10:50:13 10° N
CZ-2C R/B 3.6 10:41:54 10° NNW 10:44:45 24° NW 10:44:45 24° NW
Cosmos 2228 3.2 10:46:11 10° N 10:50:33 73° E 10:54:55 10° SSE
CZ-4B R/B 3.7 10:47:24 10° NNE 10:51:25 55° E 10:55:37 10° S
Cosmos 1092 Rocket 3.9 10:45:32 10° S 10:51:40 90° E 10:57:54 10° N
Cosmos 1833 Rocket 3.1 10:50:45 23° WSW 10:53:39 38° WNW 10:58:54 10° N
Cosmos 1606 Rocket 3.8 10:49:13 10° N 10:53:41 75° E 10:58:09 10° S
ADEOS 3.6 10:49:19 10° N 10:54:23 54° WNW 10:59:27 10° SSW
COSMO-SKYMED 1 3.7 10:51:06 10° SSE 10:55:14 46° ENE 10:59:24 10° N
Elektron 1 4.5 10:56:36 32° W 10:57:26 38° NW 11:00:10 10° NNE
Nadezhda 4 Rocket 4.1 10:52:02 10° SSW 10:57:50 46° W 11:03:43 10° N
Lacrosse 5 rocket 2.7 10:58:35 18° NW 10:58:35 18° NW 11:01:02 10° N
H-2A R/B 3.7 10:56:02 10° SSW 10:57:55 18° SW 10:57:55 18° SW
Geosat 3.9 10:54:31 10° SSE 10:59:30 68° WSW 11:04:31 10° NNW
Cosmos 1302 Rocket 4.2 10:54:51 10° NNW 10:59:55 48° WSW 11:04:57 10° S
Meteor 1-24 Rocket 3.6 10:55:02 10° SSW 11:00:32 75° W 11:06:18 10° N
CZ-3 R/B 3.2 10:42:23 18° WSW 11:01:41 64° S 11:08:31 10° ESE
ATLAS CENTAUR R/B 4.4 10:59:27 10° SSE 11:02:08 17° ESE 11:04:44 10° ENE
Meteor 2-13 Rocket 4.4 10:59:00 10° SSW 11:05:03 60° W 11:11:08 10° N
Meteor 1-31 Rocket 3.0 11:01:43 10° N 11:05:31 48° WNW 11:09:18 10° SSW
Meteor PRIRODA 3.7 11:04:34 10° NNE 11:08:12 77° E 11:11:52 10° S
CZ-4B R/B 1.9 11:06:50 10° S 11:10:06 40° W 11:13:23 10° NNW
Cosmos 2369 3.7 11:05:36 10° NNW 11:11:17 90° WSW 11:16:55 10° SSE
Cosmos 2082 Rocket 2.4 11:07:23 10° SW 11:12:46 48° WNW 11:18:11 10° N
Okean 1-7 Rocket 3.7 11:09:18 10° S 11:13:51 85° E 11:18:24 10° N
Cosmos 1627 Rocket 4.5 11:08:31 10° S 11:14:53 75° W 11:21:17 10° N
METEOR-M 4.4 11:11:26 10° N 11:16:30 45° WNW 11:21:31 10° SW
ASTRO F (AKARI) 4.3 11:17:34 10° N 11:21:02 74° WNW 11:24:19 10° SSW
Cosmos 220 Rocket 4.0 11:17:38 10° NNW 11:22:03 69° WSW 11:26:24 10° S
deb Chang Zheng 4 4.4 11:19:19 10° NNW 11:22:53 26° WNW 11:26:26 10° SW
Intercosmos 24 4.2 11:20:39 10° NNW 11:23:58 33° W 11:27:15 10° SSW
Cosmos 2058 Rocket 3.3 11:19:43 10° N 11:24:13 78° E 11:28:40 10° S
Gblst 52 Del rocket 4.5 11:19:04 10° SW 11:24:37 76° SE 11:30:47 10° NE
Meteor 2-5 Rocket 4.4 11:20:09 10° SW 11:25:12 33° WNW 11:30:22 10° NNW
Cosmos 1892 Rocket 3.9 11:25:33 10° SSW 11:29:37 40° W 11:33:44 10° N
ATLAS 3B R/B 3.3 11:25:03 10° WSW 11:30:54 33° NW 11:36:48 10° NNE
Cosmos 2084 3.9 11:27:41 10° SW 11:31:44 41° NW 11:35:53 10° NNE
Spot 2 4.5 11:27:13 10° NNE 11:31:50 81° ESE 11:36:42 10° S
Cosmos 1400 Rocket 2.8 11:30:02 10° NNW 11:33:54 58° W 11:37:42 10° S
ERS-2 3.9 11:34:47 10° SW 11:36:41 14° W 11:38:37 10° WNW
YAOGAN 6 4.1 11:34:04 10° NNE 11:37:35 42° E 11:41:03 10° S
H-2A R/B 2.9 11:36:09 10° NNE 11:40:30 72° ESE 11:44:40 10° S
Cosmos 1992 Rocket 4.2 11:35:28 10° NNW 11:40:31 52° WSW 11:45:33 10° S
Cosmos 1697 Rocket 3.2 11:37:53 10° NW 11:43:05 38° WSW 11:48:15 10° S
SKYMED 2 3.9 11:39:08 10° S 11:43:16 45° W 11:47:26 10° NNW
ADEOS Rocket 4.5 11:42:57 10° WSW 11:44:17 11° W 11:45:37 10° WNW
Meteor 2-8 Rocket 4.5 11:40:13 10° N 11:46:23 77° W 11:52:30 10° S
